Location: Béaulencourt
(50.0796°N, 2.8795°E)
Time: 00:40:09
(UTC+00:00)

COSMO-SKYMED 1 - Pass Details

Date: 20 January 2026
Orbit: 577 x 579 km, 97.9° (Epoch: 17 February)

Event Time Altitude Azimuth Distance (km) Brightness Sun altitude
Rises 06:07:03 0° 197° (SSW) 2,788 5.9 -14.1°
Reaches altitude 10° 06:09:31 10° 211° (SSW) 1,894 4.9 -13.7°
Maximum altitude 06:12:54 24° 266° (W) 1,212 3.5 -13.2°
Enters shadow 06:14:28 19° 300° (WNW) 1,392 3.8 -13.0°
